Location: Roanoke
(37.2710°N, 79.9420°W)
Time: 02:21:42
(UTC-05:00)

Courier 1B Rocket - Pass Details

Date: 18 November 2019
Orbit: 920 x 1202 km, 28.2° (Epoch: 13 December)

Event Time Altitude Azimuth Distance (km) Brightness Sun altitude
Rises 13:53:54 0° 212° (SSW) 3,732 9.3 27.9°
Reaches altitude 10° 13:57:28 10° 194° (SSW) 2,838 8.9 27.5°
Maximum altitude 14:01:55 18° 154° (SSE) 2,364 7.6 27.1°
Drops below altitude 10° 14:06:34 10° 114° (ESE) 2,979 7.5 26.6°
Sets 14:10:25 0° 97° (E) 3,992 8.0 26.2°
